• En España
  • Lista de países
  • Para 7 días
  • Temperatura del agua
  • Mapa Satelital
  • El tiempo en el mapa
  • Informadores
  • user-avatar
    Iniciar sesión

    Tiempo cada hora Gomel

    Hoy, 19 Octubre, Viernes

    Tiempo Temperatura Precipitaciones Viento Presión Humedad
    00:00 +14°C° 0 mm 1 mps 753 mmHg 80%
    01:00 +14°C° 0 mm 1 mps 753 mmHg 82%
    02:00 +13°C° 0 mm 1 mps 753 mmHg 81%
    03:00 +13°C° 0 mm 1 mps 753 mmHg 83%
    04:00 +12°C° 0 mm 1 mps 753 mmHg 84%
    05:00 +12°C° 0 mm 1 mps 752 mmHg 85%
    06:00 +13°C° 0 mm 1 mps 752 mmHg 83%
    07:00 +13°C° 0 mm 1 mps 752 mmHg 81%
    08:00 +13°C° 0 mm 0 mps 752 mmHg 79%
    09:00 +14°C° 0 mm 0 mps 752 mmHg 72%
    10:00 +16°C° 0 mm 0 mps 752 mmHg 65%
    11:00 +20°C° 0 mm 1 mps 752 mmHg 59%
    12:00 +20°C° 0 mm 1 mps 752 mmHg 56%
    13:00 +21°C° 0 mm 1 mps 752 mmHg 54%
    14:00 +21°C° 0 mm 1 mps 752 mmHg 51%
    15:00 +20°C° 0 mm 1 mps 752 mmHg 57%
    16:00 +18°C° 0 mm 1 mps 752 mmHg 62%
    17:00 +16°C° 0 mm 1 mps 751 mmHg 67%
    18:00 +15°C° 0 mm 1 mps 752 mmHg 70%
    19:00 +14°C° 0 mm 2 mps 752 mmHg 74%
    20:00 +14°C° 0 mm 2 mps 752 mmHg 77%
    21:00 +13°C° 0 mm 2 mps 752 mmHg 81%
    22:00 +13°C° 0 mm 2 mps 752 mmHg 85%
    23:00 +12°C° 0 mm 2 mps 753 mmHg 88%

    Mañana, 20 Octubre, Sábado

    Tiempo Temperatura Precipitaciones Viento Presión Humedad
    00:00 +12°C° 0 mm 2 mps 753 mmHg 91%
    01:00 +10°C° 0 mm 2 mps 753 mmHg 93%
    02:00 +10°C° 0 mm 2 mps 753 mmHg 95%
    03:00 +9°C° 0 mm 2 mps 753 mmHg 95%
    04:00 +9°C° 0 mm 2 mps 753 mmHg 96%
    05:00 +9°C° 0 mm 2 mps 753 mmHg 96%
    06:00 +9°C° 0 mm 2 mps 753 mmHg 94%
    07:00 +9°C° 0 mm 3 mps 754 mmHg 92%
    08:00 +10°C° 0 mm 3 mps 754 mmHg 90%
    09:00 +11°C° 0 mm 3 mps 754 mmHg 84%
    10:00 +13°C° 0 mm 2 mps 754 mmHg 78%
    11:00 +14°C° 0 mm 2 mps 754 mmHg 73%
    12:00 +14°C° 0 mm 2 mps 754 mmHg 70%
    13:00 +14°C° 0 mm 2 mps 754 mmHg 68%
    14:00 +15°C° 0 mm 2 mps 753 mmHg 65%
    15:00 +14°C° 0 mm 2 mps 753 mmHg 67%
    16:00 +13°C° 0 mm 2 mps 753 mmHg 70%
    17:00 +12°C° 0 mm 1 mps 753 mmHg 72%
    18:00 +11°C° 0 mm 1 mps 753 mmHg 73%
    19:00 +10°C° 0 mm 1 mps 753 mmHg 74%
    20:00 +10°C° 0 mm 1 mps 754 mmHg 75%
    21:00 +9°C° 0 mm 1 mps 753 mmHg 75%
    22:00 +9°C° 0 mm 1 mps 753 mmHg 74%
    23:00 +9°C° 0 mm 1 mps 753 mmHg 74%

    Pasado mañana, 21 Octubre, Domingo

    Tiempo Temperatura Precipitaciones Viento Presión Humedad
    00:00 +9°C° 0 mm 1 mps 753 mmHg 73%
    01:00 +9°C° 0 mm 1 mps 753 mmHg 72%
    02:00 +9°C° 0 mm 1 mps 753 mmHg 71%
    03:00 +9°C° 0 mm 1 mps 753 mmHg 72%
    04:00 +9°C° 0 mm 1 mps 753 mmHg 72%
    05:00 +7°C° 0 mm 2 mps 753 mmHg 72%
    06:00 +8°C° 0 mm 2 mps 753 mmHg 72%
    07:00 +8°C° 0 mm 2 mps 753 mmHg 71%
    08:00 +8°C° 0 mm 2 mps 753 mmHg 71%
    09:00 +9°C° 0 mm 2 mps 754 mmHg 68%
    10:00 +10°C° 0 mm 3 mps 754 mmHg 65%
    11:00 +10°C° 0 mm 3 mps 754 mmHg 62%
    12:00 +11°C° 0 mm 3 mps 754 mmHg 59%
    13:00 +12°C° 0 mm 3 mps 754 mmHg 57%
    14:00 +12°C° 0 mm 3 mps 754 mmHg 55%
    15:00 +11°C° 0 mm 3 mps 754 mmHg 60%
    16:00 +10°C° 0 mm 3 mps 754 mmHg 64%
    17:00 +9°C° 0 mm 2 mps 755 mmHg 69%
    18:00 +8°C° 0 mm 2 mps 755 mmHg 71%
    19:00 +7°C° 0 mm 2 mps 755 mmHg 74%
    20:00 +7°C° 0 mm 2 mps 755 mmHg 77%
    21:00 +6°C° 0 mm 2 mps 756 mmHg 79%
    22:00 +6°C° 0 mm 2 mps 756 mmHg 80%
    23:00 +5°C° 0 mm 2 mps 756 mmHg 82%

    22 Octubre, Lunes

    Tiempo Temperatura Precipitaciones Viento Presión Humedad
    00:00 +5°C° 0 mm 2 mps 756 mmHg 84%
    01:00 +5°C° 0 mm 2 mps 756 mmHg 86%
    02:00 +5°C° 0 mm 2 mps 756 mmHg 87%
    03:00 +4°C° 0 mm 2 mps 756 mmHg 88%
    04:00 +4°C° 0 mm 2 mps 756 mmHg 90%
    05:00 +4°C° 0 mm 2 mps 756 mmHg 91%
    06:00 +4°C° 0 mm 2 mps 756 mmHg 89%
    07:00 +4°C° 0 mm 2 mps 756 mmHg 87%
    08:00 +5°C° 0 mm 2 mps 757 mmHg 85%
    09:00 +6°C° 0 mm 2 mps 757 mmHg 77%
    10:00 +8°C° 0 mm 2 mps 756 mmHg 69%
    11:00 +10°C° 0 mm 2 mps 756 mmHg 61%
    12:00 +11°C° 0 mm 1 mps 756 mmHg 58%
    13:00 +12°C° 0 mm 1 mps 755 mmHg 54%
    14:00 +13°C° 0 mm 1 mps 755 mmHg 51%
    15:00 +11°C° 0 mm 1 mps 754 mmHg 56%
    16:00 +10°C° 0 mm 1 mps 754 mmHg 61%
    17:00 +9°C° 0 mm 1 mps 754 mmHg 66%
    18:00 +8°C° 0 mm 1 mps 754 mmHg 69%
    19:00 +7°C° 0 mm 1 mps 753 mmHg 71%
    20:00 +7°C° 0 mm 1 mps 753 mmHg 74%
    21:00 +6°C° 0 mm 1 mps 753 mmHg 76%
    22:00 +5°C° 0 mm 0 mps 753 mmHg 78%
    23:00 +5°C° 0 mm 0 mps 753 mmHg 80%

    23 Octubre, Martes

    Tiempo Temperatura Precipitaciones Viento Presión Humedad
    00:00 +5°C° 0 mm 1 mps 752 mmHg 80%
    01:00 +5°C° 0 mm 1 mps 752 mmHg 81%
    02:00 +5°C° 0 mm 1 mps 751 mmHg 82%
    03:00 +5°C° 0 mm 1 mps 751 mmHg 83%
    04:00 +4°C° 0 mm 1 mps 751 mmHg 84%
    05:00 +4°C° 0 mm 1 mps 750 mmHg 84%
    06:00 +4°C° 0 mm 1 mps 750 mmHg 82%
    07:00 +5°C° 0 mm 1 mps 750 mmHg 81%
    08:00 +5°C° 0 mm 1 mps 750 mmHg 79%
    09:00 +7°C° 0 mm 1 mps 750 mmHg 72%
    10:00 +8°C° 0 mm 1 mps 750 mmHg 66%
    11:00 +9°C° 0 mm 2 mps 750 mmHg 59%
    12:00 +10°C° 0 mm 2 mps 749 mmHg 57%
    13:00 +10°C° 0 mm 2 mps 749 mmHg 55%
    14:00 +12°C° 0 mm 2 mps 748 mmHg 53%
    15:00 +9°C° 0 mm 2 mps 748 mmHg 58%
    16:00 +8°C° 0 mm 2 mps 748 mmHg 63%
    17:00 +8°C° 0 mm 1 mps 748 mmHg 68%
    18:00 +7°C° 0 mm 2 mps 748 mmHg 71%
    19:00 +6°C° 0 mm 2 mps 747 mmHg 73%
    20:00 +6°C° 0 mm 2 mps 747 mmHg 75%
    21:00 +6°C° 0 mm 2 mps 747 mmHg 77%
    22:00 +6°C° 0 mm 2 mps 747 mmHg 79%
    23:00 +5°C° 0 mm 3 mps 747 mmHg 81%

    24 Octubre, Miércoles

    Tiempo Temperatura Precipitaciones Viento Presión Humedad
    00:00 +5°C° 0 mm 3 mps 746 mmHg 84%
    01:00 +4°C° 0 mm 3 mps 746 mmHg 88%
    02:00 +4°C° 0 mm 3 mps 745 mmHg 91%
    03:00 +3°C° 0 mm 3 mps 745 mmHg 91%
    04:00 +3°C° 0 mm 3 mps 744 mmHg 91%
    05:00 +2°C° 0 mm 3 mps 744 mmHg 91%
    06:00 +1°C° 0 mm 4 mps 743 mmHg 87%
    07:00 +2°C° 0 mm 5 mps 742 mmHg 83%
    08:00 +2°C° 0 mm 5 mps 741 mmHg 79%
    09:00 +3°C° 0 mm 6 mps 740 mmHg 76%
    10:00 +4°C° 0 mm 6 mps 740 mmHg 72%
    11:00 +5°C° 0 mm 7 mps 739 mmHg 69%
    12:00 +5°C° 0.1 mm 7 mps 737 mmHg 67%
    13:00 +6°C° 0.1 mm 8 mps 736 mmHg 65%
    14:00 +6°C° 0.1 mm 8 mps 734 mmHg 64%
    15:00 +6°C° 0.9 mm 8 mps 733 mmHg 68%
    16:00 +6°C° 0.9 mm 9 mps 732 mmHg 72%
    17:00 +5°C° 0.9 mm 9 mps 730 mmHg 77%
    18:00 +5°C° 1.4 mm 9 mps 729 mmHg 79%
    19:00 +5°C° 1.4 mm 8 mps 728 mmHg 81%
    20:00 +5°C° 1.4 mm 8 mps 728 mmHg 83%
    21:00 +5°C° 1.1 mm 7 mps 727 mmHg 84%
    22:00 +5°C° 1.1 mm 6 mps 727 mmHg 85%
    23:00 +6°C° 1.1 mm 5 mps 727 mmHg 87%
    Mostrar más